Starlink 6201

operational
NORAD ID: 56486 Int'l Des: 2023-064 Owner: SPXS Country: US Constellation: starlink
LEOCIRCULAR

Über Starlink 6201

Beschreibung wird geladen...

Live-Position

3D-Globus wird geladen...

Nächste Überflüge

Höhenverlauf

Altitude vs Time

uPlot chart will show altitude changes over time

Zweizeiliger Elementsatz

1 56486U 23064AQ 26062.16668981 .01221128 69904-3 35012-2 0 9996
2 56486 69.9986 132.3134 0003721 271.9077 128.3842 15.93114556 5880
Epoch: 3. März 2026 • Age: 17 hours

Aktueller Status

Höhe 300.2 km
Geschwindigkeit 7.73 km/s
Subsatellitenpunkt -33.61°S, 56.72°E
Startdatum 10. Mai 2023
Alter 2.8 years
Typ internet

Technische Details

Klassifizierung Payload
Masse 305.00 kg
Trockenmasse 290.00 kg
Gesamtmasse 305.00 kg
Länge 0.20 m
Durchmesser 2.80 m
Spannweite 9.00 m
Form Box + pan
Hersteller SPXS
Bus-Typ Starlink
Phasenstatus In Orbit
Besitzer/Staat SPXS/US

Große Konstellationen

Loading constellations...